Find Starlink 3080

NORAD ID: 49161 Int'l Des: 2021-082 Owner: SPXS Country: US Constellation: starlink operational
LEOCIRCULAR

Current View

Loading 3D Globe...

About Starlink 3080

Description loading...

Upcoming Passes

Passes for default location (London). Set your location on the main map for personalized predictions.

Altitude History

Loading altitude history...

Two-Line Element Set

1 49161U 21082AH 26149.25985781 -.00001116 00000-0 -85778-4 0 9991
2 49161 70.0000 91.2891 0003298 257.9299 102.1490 14.98329544259120
Epoch: May 29, 2026 • Age: 18 hours

Current Status

Altitude 573.8 km
Velocity 7.57 km/s
Sub-Earth Point 2.21°N, 11.24°E
Launch Date Sep 14, 2021
Age 4.7 years
Type internet

Technical Details

Classification Payload
Mass 297.00 kg
Dry Mass 275.00 kg
Total Mass 297.00 kg
Length 0.20 m
Diameter 2.80 m
Span 9.00 m
Shape Box + pan
Manufacturer SPXS
Bus Type Starlink
Phase Status In Orbit
Owner/State SPXS/US

Most Searched